SL-16 R/B, 27006

Orbit data source: Space-Track

SL-16 R/B, 27006 is space debris in SSO originally from a launch on Mon, 10 Dec 2001 UTC launched from the Tyuratam Missile And Space Complex (TTMTR). Debris objects in space refer to the collection of defunct objects orbiting the Earth. Examples of debris include non-operational satellites, rocket bodies, and fragments generated from explosions, collisions, or faulty payload assembly.

Loading next visibility...
Identifier
27006, 2001-056F
Orbit
SSO
Country
Flag of CISCIS
Related business
Manufacturer
Yuzhnoe
Mission
Spacecraft
Bus & Motor
11S772, Unknown motor
Mass
~9,001 kg wet, 9,000 kg dry
Launch date (UTC)
2001-12-10 (24 years ago)
Launch vehicle
Unknown
Launch site
Tyuratam Missile And Space Complex (TTMTR)
Object type
Payload
Rocket body
Debris
Shape & HBR
Cyl, 5.2 m
Radar Cross Section
37.829 m², Large (>1 m²)

Expand to show TLE details & history
Last TLE update: 1 day ago

TLE from 1 day ago
0 SL-16 R/B
1 27006U 01056F   25260.01502278 -.00000023  00000-0  25857-4 0  9994
2 27006  99.7504  58.2246 0015277  74.2852  32.9901 13.71079711189399
Epoch: 2025-09-17T00:21Z
TLE epoch observation values (Epoch: 2025-09-17T00:21:37.968Z)
Latitude
70.23013°
Longitude
-94.98162°
Altitude
998.314 km
Speed
7.364 km/s
True Right ascension
17h 46m 29s
True Declination
70° 07' 26"
Sunlit
Object was in daylight at epoch
Visualization orbit readout
Latitude
Unknown
Longitude
Unknown
Altitude
Unknown
Speed
Unknown
Apparent Right ascension
Unknown
Apparent Declination
Unknown
Sunlit
N/A
Visualization observer readout
Local Sidereal Time
18:28:21
Azimuth
Unknown
Elevation
Unknown
Doppler factor
Unknown
Orbital elements
Apogee altitude
1,004.234 km
Perigee altitude
981.712 km
Semi-major axis
7,371.11 km
Eccentricity
0.00153
Inclination
99.7504°
RAAN
58.2246°
Arg. of periapsis
74.2852°
True anomaly
33.08557°
Mean anomaly
32.9901°
Eccentric anomaly
33.03782°
Mean motion
3.4296 °/min
Orbital period
104.97 mins
BSTAR
0.000025857
Loading maneuver chart data...
Computing Atmospheric mass density...
Loading historical data...
Loading historical data...
Loading historical data...
Loading historical data...
Loading historical data...
Loading historical data...
Loading historical data...

Documentation

Showing up to 5 results
|